Theta_e
312 311 310 310 310 309 309 310 310 310 310 310 310 310 310 310 311 311 314 315 315 315 313 316 317 318 317 321 320 321 317 319 321 323 323 325 318 339 342 351 349 350 347 345 345
315 311 311 310 309 309 309 309 310 310 309 309 309 310 310 310 311 316 321 320 316 320 317 317 316 315 319 325 324 320 316 319 320 322 321 322 320 322 346 350 349 348 347 344 344
314 314 311 310 309 309 309 309 309 309 309 309 309 309 310 310 315 323 323 320 315 321 319 318 318 319 320 324 325 322 321 320 323 323 323 321 321 323 349 351 349 347 345 344 343
310 315 312 310 309 309 309 309 309 309 309 309 309 309 309 311 315 325 319 318 318 319 318 318 318 320 318 320 324 322 323 324 325 327 323 319 321 320 329 342 349 347 345 343 343
306 311 316 311 310 309 309 308 309 309 308 309 309 309 309 314 318 321 320 318 318 318 318 318 318 320 318 317 318 319 320 324 326 325 323 322 320 323 328 344 348 347 344 343 343
307 306 313 314 310 309 309 309 309 308 309 309 309 309 310 317 321 321 324 319 317 317 317 318 321 321 321 319 315 317 318 321 324 324 321 319 319 329 328 349 349 347 345 344 343
310 307 307 316 312 309 309 309 309 309 309 309 309 309 311 319 322 325 321 318 317 316 320 320 321 323 320 316 320 319 316 315 317 319 317 320 318 326 330 330 341 341 343 345 344
311 310 307 311 316 311 309 309 309 309 309 311 312 311 315 319 322 322 320 317 317 316 320 320 320 320 320 319 317 317 315 315 315 318 320 318 315 325 338 342 346 346 345 345 345
311 311 308 307 316 316 312 310 310 311 312 315 316 316 321 324 324 324 322 322 320 319 318 319 319 318 318 314 312 313 317 317 317 317 318 317 327 329 342 343 342 343 345 346 346
311 311 311 308 310 317 317 315 313 313 317 318 323 322 323 326 325 324 323 321 322 321 319 318 320 315 311 311 313 315 318 316 316 317 316 321 329 333 342 342 340 341 343 344 345
311 311 311 309 308 315 317 317 320 322 319 319 320 321 320 325 323 321 323 321 321 321 317 320 317 316 314 313 314 317 318 320 319 317 316 323 329 339 340 338 336 337 338 338 340
311 311 312 311 309 311 316 316 317 323 321 323 324 321 321 323 327 322 323 322 321 318 319 320 319 318 319 319 319 319 319 315 317 319 321 329 331 332 337 335 336 335 335 336 336
310 311 312 312 310 310 314 314 316 319 320 324 326 326 326 325 325 322 322 322 320 319 319 319 322 322 321 321 321 315 315 315 317 317 323 329 331 332 333 334 333 333 333 333 333
311 310 312 312 310 313 315 318 322 319 321 326 328 327 327 326 324 324 322 322 321 320 319 320 321 323 323 323 319 317 315 316 315 314 315 319 327 332 331 329 329 329 330 331 331
312 310 311 312 311 310 320 324 318 324 331 329 329 326 326 326 324 322 322 322 321 322 323 324 326 323 323 320 318 318 315 315 315 313 313 313 311 321 329 330 327 326 328 330 329
312 311 311 312 312 311 310 320 322 326 333 329 328 328 325 326 325 323 321 322 322 321 323 324 327 323 321 319 318 316 314 311 309 307 309 311 312 312 333 332 327 325 326 328 328
312 312 312 313 313 312 322 322 321 327 327 330 331 329 329 325 326 322 321 321 321 323 323 326 325 325 320 318 316 312 310 311 313 311 311 312 312 311 326 329 327 325 325 327 326
312 312 314 313 312 311 313 320 325 325 326 330 330 329 329 329 327 325 324 322 321 321 321 324 325 322 321 318 315 313 311 311 315 311 312 314 324 329 327 328 327 325 325 326 325
312 313 319 316 313 310 323 322 324 325 330 331 330 329 328 328 325 328 328 327 322 322 323 323 323 319 318 317 315 315 313 309 311 314 313 315 332 330 327 326 325 325 324 325 325
313 317 324 315 310 321 319 322 323 324 328 328 330 330 329 326 325 324 328 327 325 322 320 319 318 318 318 317 317 315 313 312 308 315 316 315 327 331 330 328 325 325 324 324 324
314 320 324 320 314 320 315 320 324 325 326 330 329 329 328 326 324 324 325 323 319 316 314 315 313 317 317 316 315 313 312 311 309 310 311 312 312 322 329 327 327 323 324 324 324
315 315 323 321 321 319 320 323 324 324 326 327 328 329 329 326 324 322 324 321 318 317 318 318 312 315 318 319 317 314 312 312 314 315 313 315 315 317 326 326 323 320 325 326 324
317 319 322 321 323 320 319 322 322 324 326 326 327 327 326 324 325 323 323 318 319 318 318 317 313 313 313 312 315 319 321 317 313 312 315 315 315 318 323 323 322 320 323 324 323
318 319 320 320 318 318 319 320 319 319 324 324 325 323 323 321 319 321 321 319 319 319 319 319 315 313 314 315 316 317 316 317 316 315 315 315 316 319 322 322 320 320 320 322 322
319 317 318 317 316 317 318 320 319 318 321 321 321 322 322 320 321 321 322 319 317 321 318 312 314 318 318 318 318 318 319 318 318 318 319 317 317 317 317 320 320 321 321 319 321
313 318 317 318 318 317 317 319 318 317 320 322 321 322 320 321 321 321 321 320 318 317 317 313 316 317 318 319 320 319 319 318 317 317 316 316 318 319 320 319 318 317 320 317 318
310 314 317 319 316 315 317 318 318 316 317 320 321 320 320 320 320 321 321 319 320 317 315 314 314 315 317 319 320 320 321 321 321 319 321 323 321 318 319 319 319 319 318 316 316
Wind_Speed
21 20 19 18 17 16 15 15 14 14 14 13 15 15 16 18 20 23 27 18 9 13 11 8 9 13 14 9 14 12 3 3 7 1 6 22 10 5 14 31 17 5 30 37 38
20 20 19 18 17 15 14 12 12 12 13 13 14 15 15 18 22 25 16 10 14 12 16 10 10 14 10 10 10 6 4 8 6 3 7 19 10 10 5 17 16 23 29 40 42
20 20 19 17 16 14 13 11 10 10 11 12 13 13 14 16 19 3 5 4 17 16 10 6 7 15 8 12 12 5 6 7 14 13 16 9 12 6 11 6 29 32 39 40 39
20 19 19 17 16 14 12 11 9 9 10 11 11 12 13 12 5 1 2 4 13 14 12 12 12 8 5 6 13 4 16 24 23 29 18 7 7 7 15 13 32 40 39 41 40
20 19 19 17 15 13 11 10 9 9 9 10 11 11 11 8 20 10 9 6 11 14 17 16 14 15 5 7 7 6 13 25 33 30 27 21 4 7 15 25 32 39 40 38 37
21 19 18 17 15 13 11 9 9 8 9 9 10 10 10 6 5 9 8 13 11 14 19 21 15 14 8 9 7 7 19 25 26 32 19 6 4 13 11 30 30 29 31 34 34
24 21 18 17 15 13 12 10 9 8 9 9 10 10 14 23 5 5 10 11 10 13 23 23 14 10 2 5 22 22 7 8 15 17 9 9 4 7 22 28 29 26 23 22 18
26 23 18 16 15 13 12 10 9 8 9 9 10 12 13 6 12 10 7 9 10 13 18 13 14 17 16 7 6 2 3 4 7 8 6 12 8 6 23 34 25 28 32 32 28
27 24 20 16 14 13 11 10 10 9 10 10 8 8 13 6 19 13 12 12 9 12 16 14 13 11 5 3 5 5 3 3 6 7 4 4 6 7 28 35 24 26 31 32 27
28 26 23 17 15 14 13 12 12 12 9 5 8 6 14 12 14 17 15 13 13 12 18 14 4 2 3 4 5 4 3 6 8 9 7 5 7 10 21 33 25 26 27 25 22
28 27 24 19 15 14 13 11 5 4 11 13 9 14 13 8 16 16 18 24 20 14 7 3 2 6 11 7 5 5 7 14 13 6 6 9 8 13 15 26 21 23 25 22 15
29 27 26 21 16 14 15 10 13 3 11 22 24 30 28 16 6 18 19 18 10 7 3 4 7 12 7 8 8 7 6 7 6 8 8 9 7 6 8 13 23 28 24 22 17
31 29 25 22 17 15 17 16 13 19 5 20 17 21 23 13 18 23 22 24 4 5 6 7 13 11 11 12 8 3 6 5 4 5 8 7 4 5 4 16 19 21 21 16 11
33 30 25 20 14 11 15 4 10 21 2 6 6 9 13 15 8 30 25 18 4 9 4 6 16 10 6 3 4 4 5 6 7 5 2 2 4 1 1 6 10 19 23 19 12
34 32 25 20 13 16 5 10 17 3 3 5 5 21 13 10 9 17 26 23 11 9 4 8 4 6 4 6 5 4 3 6 5 4 2 1 5 6 6 7 11 15 24 21 14
34 34 27 21 17 11 7 8 4 4 5 4 3 6 5 12 15 22 22 24 15 6 4 9 2 4 6 4 7 5 7 9 5 4 2 5 4 3 11 14 11 16 23 24 18
35 33 29 19 13 2 3 3 5 3 5 5 5 6 4 5 11 8 10 8 7 3 3 0 8 6 5 7 4 8 7 4 4 4 5 5 2 8 17 13 17 21 27 26 18
36 34 20 13 11 11 5 5 3 5 7 3 4 5 3 6 6 18 10 12 5 5 3 3 0 3 2 7 7 5 8 5 4 3 4 7 4 6 10 19 25 30 35 28 24
36 29 10 1 14 14 8 3 7 5 3 3 5 5 5 11 12 4 4 7 9 8 8 5 3 1 6 4 7 2 3 6 6 1 3 3 2 3 7 13 18 23 26 30 28
35 22 2 3 16 16 5 4 4 2 1 4 4 2 13 8 9 7 9 21 16 7 8 7 4 1 2 6 4 6 4 3 3 3 3 4 4 5 5 12 12 21 29 33 30
21 11 2 11 19 8 4 7 7 13 11 6 4 2 6 2 8 3 14 13 2 4 9 5 5 3 5 3 7 4 1 5 5 5 5 2 6 5 17 18 15 18 23 35 31
13 3 1 17 4 2 3 5 9 6 7 5 4 4 10 7 5 7 6 2 10 3 5 2 5 4 4 2 4 5 8 6 5 4 2 4 5 5 14 15 18 24 38 40 35
20 7 9 13 2 3 5 4 4 3 2 4 6 8 9 8 7 10 12 2 9 4 7 5 2 3 7 6 6 5 3 4 5 3 5 5 5 4 8 16 26 29 31 39 35
6 4 6 7 4 2 4 4 3 4 3 3 4 6 1 6 4 5 12 10 7 7 11 8 4 7 7 5 3 1 4 2 5 4 4 6 5 3 5 10 16 30 37 38 38
7 4 7 3 4 4 3 3 4 4 4 5 3 4 4 3 7 3 3 3 7 4 5 5 4 3 3 1 2 4 2 6 2 6 4 6 8 6 10 10 26 40 42 40 41
8 7 11 9 13 6 4 3 4 4 5 2 5 2 5 3 1 3 3 4 2 1 3 2 4 3 1 3 3 4 6 8 6 5 1 4 5 4 18 18 10 20 33 38 43
18 7 3 7 7 5 6 3 7 5 4 7 4 3 5 3 4 8 0 1 7 6 3 4 6 4 4 3 2 4 2 4 5 6 1 4 4 12 6 15 22 27 27 25 40
Wind_Direction
336 331 326 320 314 309 300 291 283 275 271 274 279 285 292 295 293 288 281 287 265 220 214 187 201 210 203 215 197 210 66 230 241 90 255 308 350 111 111 129 136 199 156 157 157
337 335 330 324 318 313 305 294 282 274 273 276 280 287 295 300 301 294 302 262 222 207 187 201 212 185 186 222 203 165 171 231 183 261 292 301 327 354 94 116 119 120 147 149 164
335 336 333 327 321 317 309 299 284 272 272 276 279 286 295 302 312 272 5 288 173 180 171 207 180 176 206 230 217 201 222 245 275 279 283 292 327 63 110 120 149 146 147 156 161
331 333 334 330 324 320 312 302 291 278 273 274 279 286 292 294 276 360 44 118 157 171 180 191 204 185 207 205 230 224 236 240 262 268 270 275 309 31 117 183 163 156 158 160 168
333 330 332 330 325 320 311 301 288 278 273 271 274 283 287 276 257 247 276 211 178 188 183 191 199 207 188 206 237 202 248 247 248 257 261 280 258 139 102 157 157 156 157 165 171
338 329 326 328 326 320 312 302 290 282 276 272 273 277 274 265 296 192 210 217 215 197 186 197 206 212 239 220 170 232 240 250 254 253 254 239 173 124 131 146 148 155 165 169 175
343 335 325 323 325 319 310 300 290 281 276 273 274 273 269 256 268 245 229 228 216 200 187 199 208 229 233 277 255 252 266 271 247 236 228 220 284 138 147 119 116 130 157 162 164
347 340 327 317 319 318 311 303 295 286 280 276 274 275 261 311 198 191 193 202 206 199 190 204 227 253 243 262 311 353 156 191 273 168 233 149 239 159 123 117 103 108 119 126 131
347 342 334 315 310 313 314 307 295 285 280 278 257 238 262 266 206 201 199 186 171 190 218 257 273 215 225 61 1 6 250 243 293 214 130 111 148 119 127 122 108 109 112 118 122
347 344 337 322 304 304 306 307 295 281 267 232 221 274 251 229 201 194 201 204 221 227 247 259 222 54 32 85 219 236 277 268 228 239 149 132 157 131 131 124 121 119 120 120 122
346 342 337 325 305 295 297 305 285 229 220 224 234 219 285 204 195 197 215 215 226 223 182 224 111 213 226 209 210 243 287 256 238 218 118 169 139 151 136 117 117 119 118 114 119
344 341 338 328 310 287 285 269 238 66 295 283 270 252 260 257 268 212 200 204 204 208 143 22 237 228 230 235 235 269 235 354 359 18 88 144 147 124 126 125 135 131 127 125 128
342 340 335 328 312 285 275 252 273 320 277 293 250 239 256 221 224 211 195 214 183 200 185 181 239 221 219 239 186 91 82 37 43 346 54 100 34 125 110 126 126 133 133 136 140
341 338 331 327 308 285 267 9 348 330 13 271 208 252 227 239 218 203 194 203 190 223 179 217 254 236 129 75 113 88 126 81 49 64 172 99 219 148 195 112 126 135 137 135 146
338 336 325 318 280 268 233 311 318 144 331 250 235 224 233 193 174 191 200 199 221 239 133 244 355 175 128 158 111 151 100 101 126 88 27 14 104 253 144 163 171 159 145 145 154
334 333 316 308 272 272 288 315 323 55 255 284 251 195 141 207 220 193 198 207 226 207 219 206 266 218 154 128 113 124 50 30 57 108 91 247 142 258 190 198 171 172 149 151 154
331 330 312 287 260 185 155 31 47 166 281 341 352 2 5 188 205 151 192 203 215 134 297 17 148 275 137 104 32 77 60 3 359 13 212 253 103 230 216 191 176 159 154 161 163
331 329 314 283 237 222 227 71 155 253 263 235 3 5 15 19 291 176 210 218 240 126 115 146 55 195 204 153 161 164 140 150 202 202 259 310 266 287 306 159 155 157 162 165 163
334 333 336 342 193 171 149 107 192 217 271 343 355 17 300 359 345 93 48 291 226 166 152 141 200 55 82 114 125 161 96 177 120 27 75 261 305 349 16 115 140 149 157 165 172
338 328 322 142 161 147 83 210 223 280 60 58 163 227 235 353 338 24 114 266 255 185 142 183 114 78 168 64 36 126 160 43 13 157 201 281 246 211 217 166 152 163 171 175 178
341 327 119 150 157 144 162 217 222 261 265 148 141 216 211 161 271 276 173 263 128 101 94 123 102 271 82 165 174 33 31 75 119 137 163 220 266 218 192 188 181 171 170 177 182
345 334 209 171 98 155 181 207 222 291 117 103 122 154 305 176 313 342 335 332 110 139 89 76 121 130 202 296 197 176 200 136 128 233 175 160 268 292 190 188 163 166 184 187 188
325 282 42 222 62 347 307 296 203 150 165 135 167 169 220 276 247 231 281 335 117 94 156 180 47 61 350 355 5 58 93 117 99 70 195 145 261 346 166 170 186 176 185 190 192
318 337 15 42 83 81 6 288 359 326 162 137 150 136 30 305 260 168 154 205 152 132 126 104 121 148 185 192 163 180 322 301 150 133 203 200 226 251 189 177 182 188 192 195 196
4 352 11 343 329 328 208 258 311 338 83 39 43 108 129 6 334 15 61 113 21 76 68 100 129 132 157 207 186 181 273 313 221 226 179 235 196 7 321 205 189 192 196 199 198
17 3 345 306 307 317 351 337 72 13 94 33 85 43 98 96 237 346 343 74 188 309 72 4 180 130 148 235 255 305 298 288 289 357 318 69 109 41 302 23 351 284 210 199 199
3 346 321 302 328 13 336 1 19 27 23 143 168 104 81 177 260 266 332 151 144 146 136 135 128 99 238 207 330 329 72 68 111 47 326 73 338 330 318 46 36 18 7 237 203